[[{"header":{"parameterUnit":"m.s-1","parameterCategory":1,"la1":30.2991,"la2":30.254,"lo1":-89.0895,"lo2":-89.0444,"dy":0.0017,"dx":0.0017,"nx":28,"ny":28,"refTime":"2024-08-10T15:00:00:Z","depth":0,"parameterNumber":2,"parameterNumberName":"U-component_of_WINDS"},"data":[0,0,0,0,0,0,0,0,0,0,0,0,0,0,0,0,0,0,0,0,0,0,0,0,0,0,0,0,0,0,0,0,0,0,0,0,0,0,0,0,0,0,0,0,0,0,0,0,0,0,0,0,0,0,0,0,0,0,2.712,2.7121,0,2.7234,2.7236,2.7237,2.7205,2.7203,2.72,2.7198,2.732,2.7325,2.733,0,0,0,0,0,0,0,0,0,0,0,0,0,2.6877,2.6882,2.712,2.7121,2.7123,2.7234,2.7236,2.7237,2.7206,2.7203,2.72,2.7197,2.7318,2.7324,2.7331,0,0,0,0,0,0,0,0,0,0,0,0,0,2.6986,2.6883,2.712,2.712,2.7121,2.7234,2.7236,2.7238,2.7206,2.7203,2.7199,2.7196,2.7316,2.7324,2.7332,2.7452,0,0,2.7357,2.736,0,0,0,0,0,0,0,0,2.698,2.6995,2.7119,2.712,2.7122,2.7202,2.7195,2.731,2.7207,2.7174,2.7198,2.7194,2.7284,2.7294,2.7324,2.7458,2.7463,2.7357,2.7362,2.7366,2.7368,0,0,0,0,0,0,0,2.6972,2.699,2.7165,2.7121,2.7123,2.7116,2.7127,2.7216,2.7247,2.7177,2.7175,2.7188,2.7284,2.7316,2.7326,2.7465,2.7357,2.7364,2.7369,2.7373,2.7701,2.7705,0,0,0,0,0,0,2.6963,2.6984,2.7162,2.7169,2.7041,2.7123,2.7136,2.718,2.7246,2.7253,2.7191,2.7186,2.7304,2.7317,2.733,2.7473,2.7366,2.7373,2.7378,2.7697,2.7702,2.7706,0,0,0,0,0,0,2.6958,2.6979,2.7157,2.7076,2.7098,2.7131,2.718,2.7184,2.7216,2.7257,2.7263,2.7218,2.7301,2.7319,2.7421,2.7477,2.7377,2.7384,2.7693,2.7699,2.7704,2.7761,0,0,0,0,0,0,2.6951,2.6978,2.7023,2.7077,2.7102,2.7245,2.7184,2.7189,2.7229,2.7224,2.7284,2.729,2.73,2.7409,2.7429,2.7486,2.7391,2.7688,2.7695,2.7702,2.7754,2.7768,2.778,0,0,0,0,0,2.6943,2.7036,2.7026,2.7047,2.716,2.7248,2.7263,2.7271,2.7234,2.728,2.7306,2.7288,2.7468,2.742,2.7442,2.7503,2.7684,2.7693,2.7702,2.7749,2.7765,2.778,0,0,0,0,0,0,2.699,2.7043,2.7032,2.7146,2.7192,2.7243,2.7301,2.7289,2.7349,2.7342,2.7351,2.7364,2.7468,2.7496,2.7442,2.7621,2.7571,2.7584,2.7599,2.7615,2.7628,2.7618,2.7397,0,0,0,0,0,2.7013,2.708,2.7124,2.7219,2.7243,2.7268,2.7308,2.7309,2.7359,2.7379,2.7413,2.7463,2.753,2.7575,2.764,2.7759,2.7771,2.7812,2.7824,2.7835,2.7846,2.7909,2.7927,2.7735,2.7735,2.7734,0,0,2.7063,2.71,2.7142,2.723,2.7266,2.7335,2.7285,2.7361,2.7413,2.7391,2.7488,2.7516,2.7572,2.7682,2.7733,2.7709,2.7901,2.7846,2.7854,2.7859,2.7919,2.7938,2.7954,2.7741,2.774,2.7739,0,0,2.7187,2.7223,2.7305,2.7342,2.7397,2.7413,2.7433,2.7485,2.7501,2.7599,2.7584,2.7646,2.7763,2.7803,2.7838,2.7977,2.7962,2.7998,2.8064,2.8125,2.814,2.8154,2.8201,2.8218,2.8009,2.8009,2.8009,0,2.7241,2.7344,2.735,2.7426,2.7464,2.7447,2.753,2.7566,2.7641,2.7668,2.764,2.7784,2.7821,2.794,2.7973,2.8004,2.8026,2.799,2.8137,2.8151,2.8163,2.8208,2.8226,2.8013,2.8013,2.8012,2.8012,0,2.7407,2.7478,2.7538,2.7607,2.7653,2.7733,2.7751,2.7798,2.7796,2.7815,2.7914,2.7957,2.8029,2.8058,2.8058,2.8177,2.8159,2.8135,2.8083,2.8185,2.8228,2.8245,2.8019,2.8017,2.8016,2.8015,0,0,2.7563,2.7634,2.7656,2.7686,2.7745,2.7801,2.788,2.7948,2.7986,2.8039,2.8104,2.8203,2.8179,2.822,2.8224,2.8279,2.8382,2.8247,2.8248,2.8268,2.8513,2.8529,2.8549,2.8374,2.8377,2.838,2.8507,0,2.7691,2.7827,2.7834,2.7958,2.8023,2.8007,2.8076,2.812,2.814,2.8199,2.8222,2.829,2.8255,2.8279,2.8332,2.8358,2.8431,2.835,2.8434,2.8437,2.8418,2.8572,2.859,2.8708,2.8524,2.8527,2.8529,0,2.7857,2.7911,2.8041,2.8089,2.8117,2.8178,2.824,2.8297,2.8347,2.8358,2.8402,2.8398,2.8479,2.8427,2.8538,2.8483,2.8518,2.8536,2.8541,2.8547,2.8487,2.858,2.8746,2.8763,2.8556,2.8554,2.8552,0,2.7955,2.8061,2.8152,2.8179,2.8238,2.8281,2.8308,2.8354,2.8394,2.8449,2.8475,2.854,2.8576,2.8626,2.864,2.8601,2.8751,2.87,2.8761,2.8761,2.8792,2.8789,2.8964,2.8819,2.8819,2.8818,2.8818,0,2.8095,2.8174,2.8196,2.8252,2.834,2.8348,2.8436,2.8461,2.8502,2.8562,2.8554,2.8611,2.8627,2.8687,2.8699,2.8788,2.8805,2.8816,2.8818,2.8815,2.8813,2.8837,2.8828,2.8823,2.8822,2.8821,2.882,0,2.8218,2.8236,2.8333,2.838,2.8394,2.8457,2.8498,2.8552,2.857,2.8647,2.8665,2.8695,2.8765,2.8784,2.887,2.8878,2.8982,2.8977,2.8964,2.8963,2.9022,2.9015,2.9216,2.9242,2.9082,2.9084,2.9085,0,2.8305,2.8365,2.8418,2.8457,2.8485,2.8548,2.8588,2.8599,2.8641,2.8702,2.8748,2.8817,2.8872,2.8985,2.9015,2.908,2.9075,2.9141,2.9085,2.908,2.9073,2.9068,2.9074,2.9151,2.9153,2.9154,2.9155,0,2.8456,2.8462,2.8519,2.8579,2.8627,2.8675,2.8722,2.8755,2.8772,2.882,2.889,2.8933,2.9019,2.9087,2.9152,2.9181,2.9171,2.9173,2.919,2.9187,2.9175,2.918,2.899,2.9168,2.9167,2.9166,2.9165,2.9164,2.8562,2.8614,2.8659,2.8722,2.8758,2.8801,2.8853,2.8877,2.8936,2.9004,2.9008,2.9084,2.9132,2.9218,2.925,2.931,2.9291,2.9316,2.9322,2.9328,2.9331,2.9168,2.9323,2.9322,2.9322,2.9322,2.9322,0,2.8711,2.8738,2.8797,2.8861,2.8911,2.8896,2.8947,2.899,2.9056,2.91,2.9154,2.9235,2.9301,2.9335,2.94,2.9442,2.9439,2.9459,2.9454,2.9461,2.9347,2.9324,2.946,2.946,2.946,2.946,2.946,2.946,2.8794,2.888,2.8891,2.8994,2.9022,2.9094,2.9124,2.9164,2.9199,2.9288,2.9342,2.9364,2.9404,2.9472,2.9532,2.954,2.9564,2.9585,2.9591,2.9483,2.9469,2.9456,2.9434,2.9591,2.9591,2.97,2.9701,2.9702]},{"header":{"parameterUnit":"m.s-1","parameterCategory":1,"la1":30.2991,"la2":30.254,"lo1":-89.0895,"lo2":-89.0444,"dy":0.0017,"dx":0.0017,"nx":28,"ny":28,"refTime":"2024-08-10T15:00:00:Z","depth":0,"parameterNumber":3,"parameterNumberName":"V-component_of_WINDS"},"data":[0,0,0,0,0,0,0,0,0,0,0,0,0,0,0,0,0,0,0,0,0,0,0,0,0,0,0,0,0,0,0,0,0,0,0,0,0,0,0,0,0,0,0,0,0,0,0,0,0,0,0,0,0,0,0,0,0,0,1.7211,1.7212,0,1.7274,1.7274,1.7275,1.7247,1.7245,1.7244,1.7242,1.7304,1.7307,1.731,0,0,0,0,0,0,0,0,0,0,0,0,0,1.7063,1.7066,1.7211,1.7212,1.7213,1.7274,1.7275,1.7275,1.7247,1.7245,1.7243,1.7242,1.7303,1.7306,1.731,0,0,0,0,0,0,0,0,0,0,0,0,0,1.7127,1.7067,1.7211,1.7206,1.7206,1.7273,1.7275,1.7276,1.7248,1.7245,1.7243,1.7241,1.7302,1.7306,1.7311,1.7386,0,0,1.7325,1.7327,0,0,0,0,0,0,0,0,1.7123,1.7132,1.7206,1.7207,1.7207,1.725,1.7245,1.7312,1.7248,1.7232,1.7242,1.724,1.7288,1.7293,1.731,1.7388,1.7391,1.7325,1.7328,1.733,1.7331,0,0,0,0,0,0,0,1.7119,1.7129,1.7236,1.7207,1.7208,1.7199,1.7206,1.7257,1.7272,1.7233,1.7231,1.7239,1.7287,1.7306,1.7311,1.7392,1.7325,1.7329,1.7332,1.7334,1.7532,1.7534,0,0,0,0,0,0,1.7115,1.7126,1.7234,1.7238,1.7159,1.7204,1.7211,1.7239,1.7271,1.7274,1.7241,1.7238,1.7299,1.7306,1.7313,1.7401,1.733,1.7334,1.7337,1.7529,1.7532,1.7535,0,0,0,0,0,0,1.7112,1.7125,1.7231,1.7181,1.7194,1.7209,1.724,1.7241,1.7259,1.7277,1.7279,1.7257,1.7297,1.7307,1.7367,1.7403,1.7336,1.7341,1.7526,1.753,1.7533,1.7578,0,0,0,0,0,0,1.7108,1.7124,1.7154,1.7182,1.7197,1.7286,1.7242,1.7244,1.7268,1.7264,1.7293,1.7296,1.7296,1.7361,1.7372,1.7408,1.7344,1.7523,1.7528,1.7532,1.7574,1.7583,1.7591,0,0,0,0,0,1.7103,1.7164,1.7155,1.7169,1.7235,1.7288,1.7296,1.7296,1.7271,1.73,1.7311,1.7295,1.7397,1.7367,1.738,1.7418,1.7521,1.7526,1.7532,1.757,1.7581,1.7591,0,0,0,0,0,0,1.7139,1.7168,1.7158,1.7231,1.7257,1.7283,1.732,1.7309,1.7342,1.7337,1.7335,1.7342,1.7404,1.7417,1.7383,1.749,1.7455,1.7463,1.7479,1.7491,1.7499,1.7494,1.7348,0,0,0,0,0,1.7155,1.7197,1.722,1.7282,1.7295,1.7305,1.7329,1.7326,1.7353,1.7364,1.7379,1.7405,1.7442,1.7467,1.7503,1.7576,1.758,1.7608,1.7616,1.7624,1.763,1.7667,1.7679,1.7553,1.7553,1.7553,0,0,1.719,1.7211,1.7237,1.7289,1.7309,1.7351,1.7315,1.7361,1.7392,1.737,1.7428,1.744,1.7468,1.7535,1.7564,1.7547,1.7666,1.7631,1.7636,1.7639,1.7674,1.7686,1.7696,1.7557,1.7556,1.7556,0,0,1.7273,1.7295,1.7347,1.7368,1.7398,1.7405,1.7417,1.7444,1.7452,1.751,1.7494,1.7529,1.7595,1.7615,1.7634,1.7723,1.7708,1.7734,1.778,1.7815,1.7825,1.7834,1.7864,1.7875,1.7741,1.7742,1.7742,0,1.7312,1.7376,1.7375,1.7423,1.7445,1.7428,1.748,1.75,1.754,1.7555,1.7536,1.7616,1.7634,1.7703,1.7725,1.7741,1.7754,1.7731,1.7824,1.7833,1.7841,1.7869,1.788,1.7744,1.7744,1.7744,1.7743,0,1.742,1.7464,1.7503,1.7543,1.7569,1.7619,1.7624,1.7651,1.7646,1.7654,1.7711,1.7732,1.7771,1.7787,1.7783,1.7855,1.7843,1.7824,1.7788,1.7856,1.7882,1.7893,1.7748,1.7747,1.7747,1.7746,0,0,1.7529,1.7567,1.7581,1.7598,1.763,1.7663,1.771,1.7749,1.7771,1.7799,1.7837,1.7892,1.7874,1.7895,1.7892,1.7924,1.799,1.79,1.7901,1.7915,1.8069,1.8082,1.8095,1.7981,1.7983,1.7985,1.8065,0,1.7614,1.7698,1.7698,1.7775,1.7814,1.7798,1.7839,1.7862,1.787,1.7903,1.7911,1.7949,1.7924,1.7936,1.7966,1.7976,1.8021,1.797,1.8015,1.8017,1.8007,1.8109,1.8123,1.8199,1.8076,1.8078,1.8079,0,1.7724,1.7755,1.7836,1.786,1.7877,1.7914,1.7947,1.798,1.8005,1.8008,1.8031,1.8023,1.8069,1.8033,1.8095,1.8061,1.8079,1.8086,1.8089,1.8092,1.8051,1.8113,1.8223,1.8233,1.8096,1.8094,1.8093,0,1.7792,1.7855,1.7911,1.7926,1.7956,1.7982,1.7995,1.8018,1.804,1.8069,1.8083,1.8117,1.8136,1.8161,1.8162,1.8136,1.8224,1.8188,1.8226,1.8226,1.8245,1.8244,1.8358,1.8259,1.8259,1.8259,1.8259,0,1.7886,1.7935,1.7942,1.7976,1.803,1.8029,1.8083,1.8094,1.8114,1.8148,1.8136,1.8169,1.8168,1.8201,1.8202,1.8252,1.8261,1.8263,1.8262,1.8263,1.8263,1.8274,1.8269,1.8262,1.8261,1.8261,1.826,0,1.7971,1.7978,1.8037,1.8061,1.8067,1.8106,1.8125,1.8157,1.8163,1.8207,1.8217,1.8227,1.8264,1.8268,1.8311,1.8312,1.8372,1.8366,1.8364,1.8362,1.8399,1.8395,1.8524,1.854,1.8432,1.8433,1.8434,0,1.803,1.8067,1.8094,1.8117,1.8132,1.8169,1.8191,1.8191,1.8215,1.8245,1.8272,1.8308,1.8337,1.8398,1.8408,1.844,1.8434,1.8477,1.8439,1.8438,1.8433,1.843,1.8433,1.8484,1.8485,1.8486,1.8487,0,1.8132,1.8133,1.8166,1.82,1.8228,1.8254,1.8279,1.8298,1.8301,1.8327,1.8366,1.8388,1.8432,1.8468,1.8499,1.8511,1.8499,1.8499,1.8509,1.851,1.8506,1.8507,1.8382,1.8496,1.8495,1.8494,1.8494,1.8493,1.8204,1.8236,1.826,1.8297,1.8315,1.8339,1.8369,1.8379,1.8411,1.8447,1.8445,1.8487,1.8508,1.855,1.8564,1.8595,1.8581,1.8596,1.86,1.8603,1.8606,1.8502,1.8601,1.8601,1.8601,1.8601,1.86,0,1.8304,1.8318,1.8353,1.8388,1.8416,1.8403,1.8429,1.8453,1.8491,1.8512,1.8541,1.8584,1.8618,1.863,1.8662,1.8685,1.868,1.8694,1.8691,1.8694,1.8618,1.8605,1.8697,1.8697,1.8697,1.8697,1.8697,1.8697,1.836,1.8412,1.8416,1.8477,1.849,1.8532,1.8547,1.8568,1.8585,1.8634,1.8662,1.867,1.8687,1.872,1.875,1.8753,1.8764,1.878,1.878,1.8709,1.8699,1.869,1.8678,1.8783,1.8783,1.8852,1.8853,1.8854]}]]